Le nostre stazioni meteo in Italia

Pubblicità
Il mio iltempo24.it
Bournemouth Airport, Gran Bretagna (3862): Temperatura & dewpoint: 19.01.2020 04:00:00 - 25.01.2020 04:00:00 (GMT)Bournemouth Airport, Gran Bretagna (3862): Temperatura -20cm & Temperatura -100cm: 19.01.2020 04:00:00 - 25.01.2020 04:00:00 (GMT)Bournemouth Airport, Gran Bretagna (3862): velocità del vento: 19.01.2020 04:00:00 - 25.01.2020 04:00:00 (GMT)Bournemouth Airport, Gran Bretagna (3862): direzione del vento: 19.01.2020 04:00:00 - 25.01.2020 04:00:00 (GMT)Bournemouth Airport, Gran Bretagna (3862): reduced air pressure: 19.01.2020 04:00:00 - 25.01.2020 04:00:00 (GMT)Bournemouth Airport, Gran Bretagna (3862): visibility: 19.01.2020 04:00:00 - 25.01.2020 04:00:00 (GMT)Bournemouth Airport, Gran Bretagna (3862): ore di luce: 19.01.2020 04:00:00 - 25.01.2020 04:00:00 (GMT)Bournemouth Airport, Gran Bretagna (3862): precipitazioni: 19.01.2020 04:00:00 - 25.01.2020 04:00:00 (GMT)
Data & Tempo tt [°C] td [°C] tt -20cm [°C] tt -100cm [°C] ff [km/h] ff [kn] dd ppp [hPa] vv [km] sd [min] rr [mm]
25.01.2020 04:00:00 5,7 3,7 - - 5 3 E 1019,7 29 0 0,0
25.01.2020 03:00:00 5,2 4,2 - - 4 2 ENE 1020,2 15 0 0,0
25.01.2020 02:00:00 5,5 3,7 - - 0 0 N 1020,7 26 0 0,0
25.01.2020 01:00:00 5,7 3,6 - - 5 3 NE 1021,0 28 0 0,0
25.01.2020 00:00:00 6,5 3,2 - - 4 2 SE 1021,3 35 - 0,0
24.01.2020 23:00:00 6,0 4,8 - - 4 2 SE 1021,6 17 0 0,0
24.01.2020 22:00:00 6,0 5,1 - - 5 3 E 1021,9 10 0 0,0
24.01.2020 21:00:00 5,7 4,9 - - 4 2 NNE 1022,2 9 0 0,0
24.01.2020 20:00:00 5,9 4,9 - - 2 1 N 1022,3 10 0 0,0
24.01.2020 19:00:00 6,1 4,9 - - 2 1 NNE 1022,1 10 0 0,0
24.01.2020 18:00:00 6,3 4,9 - - 4 2 N 1022,0 10 0 0,0
24.01.2020 17:00:00 6,5 4,7 - - 4 2 NNE 1022,0 10 0 0,0
24.01.2020 16:00:00 6,9 4,9 - - 5 3 NNE 1022,0 30 0 0,0
24.01.2020 15:00:00 7,2 4,4 - - 8 4 N 1022,2 10 0 0,2
24.01.2020 14:00:00 7,4 4,5 - - 8 4 ENE 1022,5 10 0 0,0
24.01.2020 13:00:00 7,0 4,9 - - 9 5 E 1023,2 10 0 0,0
24.01.2020 12:00:00 6,2 4,5 - - 15 8 NNE 1024,0 10 0 0,0
24.01.2020 11:00:00 6,3 4,8 - - 11 6 NE 1024,4 10 0 0,0
24.01.2020 10:00:00 6,2 4,9 - - 8 4 NE 1024,1 9 0 0,0
24.01.2020 09:00:00 5,8 5,0 5,9 7,2 4 2 E 1023,9 6 0 0,0
24.01.2020 08:00:00 5,5 4,9 - - 11 6 N 1024,0 4,0 0 0,0
24.01.2020 07:00:00 5,4 5,0 - - 8 4 N 1023,7 4,0 0 0,0
24.01.2020 06:00:00 5,4 5,0 - - 2 1 E 1023,6 4,0 0 0,0
24.01.2020 05:00:00 5,3 4,8 - - 5 3 NNE 1023,7 3,7 0 0,0
24.01.2020 04:00:00 5,2 4,8 - - 5 3 N 1024,3 3,6 0 0,0
24.01.2020 03:00:00 5,2 4,6 - - 5 3 N 1024,7 3,1 0 0,0
24.01.2020 02:00:00 5,3 4,6 - - 5 3 N 1025,4 3,6 0 0,0
24.01.2020 01:00:00 5,6 4,4 - - 8 4 NNE 1026,0 6 0 0,0
24.01.2020 00:00:00 5,8 4,4 - - 8 4 NNE 1026,6 12 - 0,0
23.01.2020 23:00:00 5,8 4,3 - - 8 4 NNE 1027,0 11 0 0,0
23.01.2020 22:00:00 5,7 4,3 - - 5 3 NE 1027,3 7 0 0,0
23.01.2020 21:00:00 5,8 4,4 - - 11 6 NE 1027,2 9 0 0,0
23.01.2020 20:00:00 5,9 4,5 - - 8 4 ENE 1027,4 8 0 0,0
23.01.2020 19:00:00 5,9 4,4 - - 8 4 ENE 1027,6 12 0 0,0
23.01.2020 18:00:00 6,1 4,3 - - 4 2 ENE 1028,1 10 0 0,0
23.01.2020 17:00:00 6,2 3,8 - - 5 3 E 1028,5 10 0 0,0
23.01.2020 16:00:00 6,4 3,9 - - 9 5 E 1028,9 10 0 0,0
23.01.2020 15:00:00 6,8 4,1 - - 9 5 E 1029,3 10 0 0,0
23.01.2020 14:00:00 6,9 4,5 - - 9 5 E 1029,9 10 0 0,0
23.01.2020 13:00:00 6,9 4,6 - - 11 6 E 1031,0 30 0 0,0
23.01.2020 12:00:00 6,8 4,9 - - 16 9 ENE 1031,7 10 0 0,0
23.01.2020 11:00:00 6,8 5,0 - - 8 4 ENE 1032,3 10 0 0,0
23.01.2020 10:00:00 6,6 5,0 - - 11 6 E 1032,6 8 0 0,0
23.01.2020 09:00:00 6,4 5,4 5,2 7,2 8 4 ENE 1032,7 6 0 0,0
23.01.2020 08:00:00 6,3 5,4 - - 9 5 ENE 1032,8 6 0 0,0
23.01.2020 07:00:00 6,3 5,4 - - 9 5 ENE 1032,8 9 0 0,0
23.01.2020 06:00:00 6,3 5,2 - - 9 5 ENE 1033,0 13 0 0,0
23.01.2020 05:00:00 6,3 5,3 - - 11 6 NE 1033,3 12 0 0,0
23.01.2020 04:00:00 6,3 5,2 - - 13 7 ENE 1033,6 22 0 0,0
23.01.2020 03:00:00 6,3 5,1 - - 9 5 E 1034,3 24 0 0,0
23.01.2020 02:00:00 6,5 5,1 - - 15 8 ENE 1034,7 30 0 0,0
23.01.2020 01:00:00 6,3 5,0 - - 11 6 ENE 1035,2 22 0 0,0
23.01.2020 00:00:00 6,5 5,2 - - 13 7 E 1035,7 21 - 0,0
22.01.2020 23:00:00 6,8 5,4 - - 11 6 E 1036,0 16 0 0,0
22.01.2020 22:00:00 6,8 5,8 - - 15 8 ENE 1035,9 18 0 0,0
22.01.2020 21:00:00 6,8 6,0 - - 15 8 ENE 1036,1 13 0 0,0
22.01.2020 20:00:00 6,8 6,2 - - 9 5 E 1036,2 8 0 0,0
22.01.2020 19:00:00 6,8 6,3 - - 9 5 ENE 1036,2 6 0 0,0
22.01.2020 18:00:00 6,7 6,2 - - 8 4 NE 1036,1 4,7 0 0,0
22.01.2020 17:00:00 6,8 6,3 - - 5 3 - 1036,1 4,5 0 0,0
22.01.2020 16:00:00 6,9 6,6 - - 8 4 - 1036,1 4,0 0 0,0
22.01.2020 15:00:00 6,8 6,5 - - 8 4 - 1036,2 5 0 0,0
22.01.2020 14:00:00 6,4 6,2 - - 5 3 - 1036,7 3,0 0 0,0
22.01.2020 13:00:00 5,9 5,6 - - 8 4 - 1037,5 2,0 0 0,0
22.01.2020 12:00:00 5,3 5,1 - - 9 5 NNE 1037,8 1,8 0 0,0
22.01.2020 11:00:00 4,3 4,1 - - 5 3 N 1038,0 0,5 0 0,0
22.01.2020 10:00:00 3,6 3,4 - - 4 2 NNO 1037,7 0,4 0 0,0
22.01.2020 09:00:00 2,7 2,5 4,7 7,5 5 3 NNO 1037,8 1,6 0 0,0
22.01.2020 08:00:00 1,8 1,6 - - 8 4 N 1038,0 1,5 0 0,0
22.01.2020 07:00:00 0,8 0,6 - - 4 2 NNO 1037,8 4,0 0 0,0
22.01.2020 06:00:00 0,3 0,0 - - 4 2 NO 1037,9 5 0 0,0
22.01.2020 05:00:00 -0,1 -0,3 - - 5 3 N 1038,3 4,6 0 0,0
22.01.2020 04:00:00 -0,7 -0,9 - - 0 0 N 1038,4 3,8 0 0,0
22.01.2020 03:00:00 -2,4 -2,7 - - 0 0 N 1038,9 5 0 0,0
22.01.2020 02:00:00 -3,3 -3,6 - - 4 2 NNO 1039,4 0,1 0 0,0
22.01.2020 01:00:00 -3,8 -4,1 - - 4 2 ONO 1040,0 0,1 0 0,0
22.01.2020 00:00:00 -3,3 -3,7 - - 5 3 ONO 1040,5 - - 0,0
21.01.2020 23:00:00 -2,0 -2,4 - - 4 2 NNO 1040,3 1,1 0 0,0
21.01.2020 22:00:00 -1,9 -2,3 - - 2 1 NNO 1040,2 5 0 0,0
21.01.2020 21:00:00 -0,9 -1,4 - - 5 3 NNO 1040,5 3,2 0 0,0
21.01.2020 20:00:00 -0,6 -1,1 - - 4 2 ONO 1040,4 5 0 0,0
21.01.2020 19:00:00 0,5 -0,4 - - 4 2 - 1040,6 8 0 0,0
21.01.2020 18:00:00 1,2 -0,3 - - 4 2 N 1040,6 10 0 0,0
21.01.2020 17:00:00 4,3 1,7 - - 4 2 N 1040,5 10 18 0,0
21.01.2020 16:00:00 6,6 2,7 - - 8 4 - 1040,5 10 60 0,0
21.01.2020 15:00:00 7,5 3,4 - - 8 4 - 1040,8 10 60 0,0
21.01.2020 14:00:00 7,5 3,7 - - 5 3 ENE 1041,1 26 60 0,0
21.01.2020 13:00:00 6,8 3,9 - - 5 3 - 1042,1 10 60 0,0
21.01.2020 12:00:00 4,5 3,7 - - 8 4 NNO 1042,3 9 60 0,0
21.01.2020 11:00:00 2,4 2,1 - - 4 2 - 1043,3 6 60 0,2
21.01.2020 10:00:00 -0,6 -0,8 - - 4 2 ONO 1043,2 3,5 36 0,0
21.01.2020 09:00:00 -3,0 -3,3 5,0 7,7 5 3 - 1043,0 3,0 0 0,0
21.01.2020 08:00:00 -4,8 -5,1 - - 4 2 ONO 1043,0 2,0 0 0,0
21.01.2020 07:00:00 -4,4 -4,6 - - 4 2 NNO 1042,9 0,2 0 0,0
21.01.2020 06:00:00 -3,1 -3,3 - - 4 2 NNO 1043,0 0,9 0 0,0
21.01.2020 05:00:00 -3,0 -3,3 - - 5 3 NO 1042,8 - 0 0,0
21.01.2020 04:00:00 -3,0 -3,3 - - 2 1 N 1042,8 0,1 0 0,0
21.01.2020 03:00:00 -3,5 -3,9 - - 4 2 NNO 1043,5 - 0 0,0
21.01.2020 02:00:00 -2,9 -3,3 - - 5 3 N 1044,1 2,6 0 0,0
21.01.2020 01:00:00 -2,9 -3,3 - - 4 2 NNO 1044,4 1,7 0 0,0
21.01.2020 00:00:00 -3,1 -3,5 - - 2 1 ENE 1045,4 1,0 - 0,0
20.01.2020 23:00:00 -2,3 -2,7 - - 2 1 NO 1045,1 4,7 0 0,0
20.01.2020 22:00:00 -2,3 -2,9 - - 8 4 N 1045,6 6 0 0,0
20.01.2020 21:00:00 -1,8 -2,5 - - 5 3 NNO 1045,7 6 0 0,0
20.01.2020 20:00:00 -1,1 -2,1 - - 2 1 NO 1046,2 10 0 0,0
20.01.2020 19:00:00 0,4 -1,5 - - 0 0 N 1046,4 19 0 0,0
20.01.2020 18:00:00 3,1 0,1 - - 2 1 OSO 1046,5 19 0 0,0
20.01.2020 17:00:00 4,7 0,4 - - 5 3 NO 1046,6 10 24 0,0
20.01.2020 16:00:00 6,7 1,4 - - 9 5 O 1047,0 30 60 0,0
20.01.2020 15:00:00 8,9 1,5 - - 4 2 OSO 1047,2 28 54 0,0
20.01.2020 14:00:00 6,6 0,9 - - 4 2 - 1047,8 10 36 0,0
20.01.2020 13:00:00 7,9 0,7 - - 2 1 - 1048,4 10 54 0,0
20.01.2020 12:00:00 5,8 2,8 - - 4 2 O 1048,6 13 54 0,0
20.01.2020 11:00:00 1,8 1,4 - - 2 1 O 1049,5 8 0 0,0
20.01.2020 10:00:00 0,5 0,3 - - 0 0 N 1049,6 9 0 0,0
20.01.2020 09:00:00 -0,6 -0,8 5,5 8,2 4 2 O 1049,6 5 0 0,0
20.01.2020 08:00:00 -1,6 -1,9 - - 2 1 NNO 1049,3 8 0 0,0
20.01.2020 07:00:00 -2,0 -2,4 - - 4 2 O 1049,2 6 0 0,0
20.01.2020 06:00:00 -1,6 -2,1 - - 2 1 - 1049,3 7 0 0,0
20.01.2020 05:00:00 -1,9 -2,3 - - 4 2 NO 1048,9 7 0 0,0
20.01.2020 04:00:00 -1,7 -2,0 - - 5 3 NO 1049,1 8 0 0,0
20.01.2020 03:00:00 -2,1 -2,5 - - 5 3 N 1049,2 7 0 0,0
20.01.2020 02:00:00 -1,9 -2,3 - - 2 1 NNO 1049,6 7 0 0,0
20.01.2020 01:00:00 -2,4 -2,8 - - 4 2 NO 1049,6 7 0 0,0
20.01.2020 00:00:00 -2,3 -2,7 - - 8 4 NNO 1049,8 9 - 0,0
19.01.2020 23:00:00 -2,8 -3,3 - - 4 2 NO 1049,7 3,9 0 0,0
19.01.2020 22:00:00 -2,0 -2,7 - - 5 3 NNO 1049,5 8 0 0,0
19.01.2020 21:00:00 -0,9 -1,6 - - 4 2 NNO 1049,2 10 0 0,0
19.01.2020 20:00:00 -1,6 -2,4 - - 9 5 NNO 1049,2 10 0 0,0
19.01.2020 19:00:00 0,5 -0,4 - - 8 4 N 1048,8 10 0 0,0
19.01.2020 18:00:00 1,8 -0,7 - - 9 5 N 1048,1 30 0 0,0
19.01.2020 17:00:00 3,0 -0,3 - - 11 6 N 1047,5 10 18 0,0
19.01.2020 16:00:00 5,9 0,9 - - 9 5 N 1047,2 10 60 0,0
19.01.2020 15:00:00 7,3 1,4 - - 11 6 N 1046,5 35 60 0,0
19.01.2020 14:00:00 7,5 1,5 - - 9 5 N 1046,1 10 60 0,0
19.01.2020 13:00:00 6,7 2,0 - - 13 7 NNO 1046,1 35 60 0,0
19.01.2020 12:00:00 5,6 1,9 - - 11 6 - 1046,1 10 60 0,0
19.01.2020 11:00:00 3,3 2,9 - - 8 4 N 1046,2 10 54 0,0
19.01.2020 10:00:00 -0,1 -0,3 - - 5 3 NNO 1045,3 10 48 0,0
19.01.2020 09:00:00 -3,0 -3,1 7,0 8,7 4 2 NNO 1044,5 10 0 0,0
19.01.2020 08:00:00 -3,9 -4,1 - - 4 2 NNO 1043,4 10 0 0,0
19.01.2020 07:00:00 -4,0 -4,4 - - 2 1 NE 1042,3 10 0 0,0
19.01.2020 06:00:00 -3,0 -3,3 - - 5 3 NO 1041,8 0,6 0 0,0
19.01.2020 05:00:00 -1,7 -1,9 - - 4 2 NNO 1040,9 8 0 0,0
19.01.2020 04:00:00 -2,1 -2,3 - - 5 3 NO 1040,4 0,5 0 0,0

tt = Temperatura
td = dewpoint
tt -20cm = Temperatura -20cm
tt -100cm = Temperatura -100cm
ff = velocità del vento
dd = direzione del vento
ppp = reduced air pressure
vv = visibility
sd = ore di luce
rr = precipitazioni

Stazioni seguenti

WeatherPro
AMSI
MeteoEarth